Retour au catalogue

STARLINK-37446

ActifCommunicationsSSO
NORAD 68808·PAYLOAD·🇺🇸 United States

Lancé Apr 23, 2026 depuis Vandenberg Space Force Base

Loading…

Prochains Passages (prochaines 24 heures)

TLE

FraisSource: CelesTrak SupGP

Époque: Sep 14, 2026, 21:14 UTC

1 68808C 26089G   26257.88520833  .00062909  00000+0  19534-2 0  2570
2 68808  97.2849 103.6825 0001616  92.8905 343.3476 15.33397076    18

Suivez STARLINK-37446 en temps réel avec AllMySat

Download on the App Store